Simultaneous Nadir Overpasses (SNOs) Predictions

Prediction of SNOs between NOAA-19 and METOP-C Satellite Orbit:

Table of predicted SNOs for the next 14.0 days since TLE Epoch: 12/28/2024
Index Date (NOAA-19) Time (NOAA-19) Lat,Lon (NOAA-19) SZA (NOAA-19 ) Date (METOP-C) Time (METOP-C) Lat,Lon (METOP-C) SZA (METOP-C ) Distance(km) Time Diff (sec)
1 01/03/2025 21:41:19 73.23, -33.12 117.76 01/03/2025 21:42:22 73.24, -33.15 117.82 1.52 63
2 01/03/2025 22:32:05 -72.71, 135.31 61.81 01/03/2025 22:32:51 -72.70, 135.32 61.75 0.61 46
3 01/03/2025 23:22:46 71.72, -55.43 119.02 01/03/2025 23:23:14 71.73, -55.46 119.04 1.67 28
4 01/04/2025 00:13:32 -71.20, 112.80 60.56 01/04/2025 00:13:43 -71.19, 112.83 60.54 1.55 11
5 01/04/2025 01:04:06 69.80, -77.63 120.56 01/04/2025 01:03:59 69.81, -77.65 120.53 1.67 7
6 01/04/2025 01:54:54 -69.39, 90.26 59.13 01/04/2025 01:54:30 -69.37, 90.32 59.14 2.89 24
7 01/04/2025 02:45:14 67.19, -99.55 122.56 01/04/2025 02:44:32 67.20, -99.57 122.48 1.46 42



Historial Predications of SNOs between NOAA-19 and METOP-C
